Location: Chakepay
(13.3931°S, 72.1925°W)
Time: 19:08:05
(UTC+00:00)

Meteor 2-6 Rocket - Pass Details

Date: 15 November 2019
Orbit: 806 x 915 km, 81.3° (Epoch: 09 December)

Event Time Altitude Azimuth Distance (km) Brightness Sun altitude
Rises 00:16:37 0° 185° (S) 3,545 7.9 -19.2°
Reaches altitude 10° 00:19:07 10° 184° (S) 2,590 7.1 -19.8°
Maximum altitude 00:25:03 85° 95° (E) 896 4.2 -21.1°
Enters shadow 00:28:39 24° 8° (N) 1,726 5.5 -21.9°
